Back to catalog

IRIDIUM 115

AliveCommunicationsPO
NORAD 42806·PAYLOAD·🇺🇸 United States

Launched Jun 25, 2017 from Vandenberg Space Force Base

Loading…

Next Passes (next 24 hours)

TLE

FreshSource: CelesTrak SupGP

Epoch: Sep 14, 2026, 22:08 UTC

1 42806C 17039D   26257.92256944  .00003331  00000+0  99164-3 0  2571
2 42806  86.4446 284.5817 0002437  88.8133  18.0880 14.43277596    10

Track IRIDIUM 115 in real time with AllMySat

Download on the App Store